Weather History for Hayden, CO

Change the Weather History Date:

Friday, November 9, 2012

  Actual Average Record
Temperature  
Mean Temperature 50 °F -  
Max Temperature 60 °F 45 °F 68 °F (1980)
Min Temperature 41 °F 21 °F 4 °F (1977)
Degree Days  
Heating Degree Days 14    
Moisture  
Dew Point 27 °F    
Average Humidity 44    
Maximum Humidity 76    
Minimum Humidity 27    
Precipitation  
Precipitation 0.00 in - - ()
Sea Level Pressure  
Sea Level Pressure 29.68 in    
Wind  
Wind Speed 11 mph (SSW)    
Max Wind Speed 30 mph    
Max Gust Speed 41 mph    
Visibility 10 miles    
Events      
Averages and records for this station are not official NWS values.
T = Trace of Precipitation, MM = Missing Value Source: NWS Daily Summary

Daily Weather History Graph

Daily Weather History Graph

Search for Another Location

Airport:

Trip Planner

Search our weather history database for the weather conditions in past years. The results will help you decide how hot, cold, wet, or windy it might be!

Date:

Astronomy

Nov. 09, 2012 Rise Set
Actual Time 6:48 AM MST 4:56 PM MST
Civil Twilight 6:19 AM MST 5:25 PM MST
Nautical Twilight 5:47 AM MST 5:57 PM MST
Astronomical Twilight 5:15 AM MST 6:29 PM MST
Moon 1:49 AM MST (11/9) 2:11 PM MST (11/9)
Length of Visible Light 11h 05m
Length of Day
10h 07m
Waning Crescent, 22% of the Moon is Illuminated
Nov 9
Waning Crescent
Nov 13
New
Nov 20
First Quarter
Nov 28
Full
Dec 6
Last Quarter

Hourly Weather History & Observations

Time (MST) Temp. Windchill Dew Point Humidity Pressure Visibility Wind Dir Wind Speed Gust Speed Precip Events Conditions
12:15 AM 44.6 °F 39.7 °F 15.8 °F 31% 29.79 in 10.0 mi ESE 9.2 mph - N/A   Clear
12:35 AM 48.2 °F - 15.8 °F 27% 29.79 in 10.0 mi Calm Calm - N/A   Clear
12:55 AM 44.6 °F - 15.8 °F 31% 29.78 in 10.0 mi Calm Calm - N/A   Clear
1:15 AM 41.0 °F - 15.8 °F 36% 29.79 in 10.0 mi Calm Calm - N/A   Clear
1:35 AM 46.4 °F 41.1 °F 19.4 °F 34% 29.77 in 10.0 mi SSW 11.5 mph 17.3 mph N/A   Clear
1:55 AM 48.2 °F - 19.4 °F 32% 29.78 in 10.0 mi SW 10.4 mph - N/A   Clear
2:15 AM 48.2 °F - 17.6 °F 30% 29.79 in 10.0 mi SSW 9.2 mph - N/A   Clear
2:35 AM 51.8 °F - 23.0 °F 33% 29.79 in 10.0 mi SW 15.0 mph - N/A   Scattered Clouds
2:55 AM 50.0 °F - 24.8 °F 37% 29.79 in 10.0 mi WSW 18.4 mph 24.2 mph N/A   Mostly Cloudy
3:15 AM 50.0 °F - 26.6 °F 40% 29.78 in 10.0 mi WSW 15.0 mph 24.2 mph N/A   Mostly Cloudy
3:35 AM 50.0 °F - 26.6 °F 40% 29.78 in 10.0 mi SSW 5.8 mph - N/A   Overcast
3:55 AM 48.2 °F - 24.8 °F 40% 29.78 in 10.0 mi East 9.2 mph - N/A   Overcast
4:15 AM 46.4 °F 40.7 °F 21.2 °F 37% 29.77 in 10.0 mi East 12.7 mph - N/A   Overcast
4:55 AM 46.4 °F - 23.0 °F 40% 29.77 in 10.0 mi Calm Calm - N/A   Scattered Clouds
5:15 AM 48.2 °F - 24.8 °F 40% 29.75 in 10.0 mi East 3.5 mph - N/A   Clear
5:35 AM 44.6 °F 41.4 °F 23.0 °F 43% 29.76 in 10.0 mi NE 5.8 mph - N/A   Clear
5:55 AM 46.4 °F 41.9 °F 26.6 °F 46% 29.75 in 10.0 mi NNE 9.2 mph - N/A   Scattered Clouds
6:15 AM 46.4 °F 43.5 °F 24.8 °F 43% 29.76 in 10.0 mi East 5.8 mph - N/A   Scattered Clouds
6:35 AM 44.6 °F 39.7 °F 24.8 °F 46% 29.76 in 10.0 mi East 9.2 mph - N/A   Scattered Clouds
6:55 AM 44.6 °F 41.4 °F 24.8 °F 46% 29.77 in 10.0 mi SE 5.8 mph - N/A   Mostly Cloudy
7:15 AM 44.6 °F 40.2 °F 26.6 °F 49% 29.77 in 10.0 mi SSE 8.1 mph - N/A   Overcast
7:55 AM 46.4 °F 42.4 °F 28.4 °F 50% 29.76 in 10.0 mi SSE 8.1 mph - N/A   Clear
8:15 AM 48.2 °F - 28.4 °F 46% 29.76 in 10.0 mi South 9.2 mph - N/A   Clear
8:35 AM 51.8 °F - 30.2 °F 44% 29.75 in 10.0 mi South 11.5 mph - N/A   Clear
8:55 AM 51.8 °F - 30.2 °F 44% 29.75 in 10.0 mi South 6.9 mph - N/A   Clear
9:15 AM 51.8 °F - 28.4 °F 41% 29.75 in 10.0 mi SSE 5.8 mph - N/A   Clear
9:35 AM 51.8 °F - 28.4 °F 41% 29.74 in 10.0 mi Calm Calm - N/A   Partly Cloudy
9:55 AM 53.6 °F - 28.4 °F 38% 29.73 in 10.0 mi SE 5.8 mph - N/A   Mostly Cloudy
10:15 AM 53.6 °F - 28.4 °F 38% 29.73 in 10.0 mi South 11.5 mph 18.4 mph N/A   Overcast
10:35 AM 55.4 °F - 28.4 °F 36% 29.73 in 10.0 mi SW 24.2 mph 34.5 mph N/A   Mostly Cloudy
10:55 AM 55.4 °F - 28.4 °F 36% 29.73 in 10.0 mi SSW 20.7 mph 31.1 mph N/A   Partly Cloudy
11:15 AM 57.2 °F - 26.6 °F 31% 29.71 in 10.0 mi SSW 23.0 mph 31.1 mph N/A   Partly Cloudy
11:35 AM 57.2 °F - 26.6 °F 31% 29.70 in 10.0 mi SSW 20.7 mph 28.8 mph N/A   Partly Cloudy
11:55 AM 57.2 °F - 28.4 °F 33% 29.68 in 10.0 mi SW 26.5 mph 33.4 mph N/A   Partly Cloudy
12:15 PM 57.2 °F - 26.6 °F 31% 29.67 in 10.0 mi SSW 29.9 mph 41.4 mph N/A   Partly Cloudy
12:35 PM 57.2 °F - 26.6 °F 31% 29.66 in 10.0 mi SSW 23.0 mph 34.5 mph N/A   Partly Cloudy
12:55 PM 57.2 °F - 26.6 °F 31% 29.64 in 10.0 mi SW 27.6 mph 34.5 mph N/A   Clear
1:15 PM 57.2 °F - 26.6 °F 31% 29.63 in 10.0 mi SW 15.0 mph 27.6 mph N/A   Clear
1:35 PM 59.0 °F - 26.6 °F 29% 29.62 in 10.0 mi SSW 18.4 mph 27.6 mph N/A   Clear
1:55 PM 60.8 °F - 26.6 °F 27% 29.61 in 10.0 mi SW 21.9 mph 33.4 mph N/A   Clear
2:15 PM 59.0 °F - 24.8 °F 27% 29.59 in 10.0 mi SW 23.0 mph 36.8 mph N/A   Clear
2:35 PM 57.2 °F - 24.8 °F 29% 29.59 in 10.0 mi SW 21.9 mph 32.2 mph N/A   Clear
2:55 PM 55.4 °F - 24.8 °F 31% 29.58 in 10.0 mi SSW 23.0 mph 36.8 mph N/A   Clear
3:15 PM 55.4 °F - 26.6 °F 33% 29.59 in 10.0 mi SW 26.5 mph 39.1 mph N/A   Clear
3:35 PM 53.6 °F - 28.4 °F 38% 29.60 in 10.0 mi SSW 23.0 mph 29.9 mph N/A   Clear
3:55 PM 53.6 °F - 28.4 °F 38% 29.59 in 10.0 mi SW 17.3 mph 25.3 mph N/A   Clear
4:15 PM 53.6 °F - 26.6 °F 35% 29.59 in 10.0 mi SW 25.3 mph 35.7 mph N/A   Clear
4:35 PM 51.8 °F - 28.4 °F 41% 29.59 in 10.0 mi SW 15.0 mph 25.3 mph N/A   Clear
4:55 PM 51.8 °F - 26.6 °F 38% 29.60 in 10.0 mi WSW 11.5 mph 20.7 mph N/A   Clear
5:15 PM 48.2 °F - 28.4 °F 46% 29.58 in 10.0 mi SW 16.1 mph 21.9 mph N/A   Clear
5:35 PM 48.2 °F - 28.4 °F 46% 29.59 in 10.0 mi WSW 8.1 mph - N/A   Clear
5:55 PM 46.4 °F - 28.4 °F 50% 29.59 in 10.0 mi Calm Calm - N/A   Clear
6:15 PM 48.2 °F - 28.4 °F 46% 29.60 in 10.0 mi SSW 9.2 mph - N/A   Clear
6:35 PM 48.2 °F - 28.4 °F 46% 29.59 in 10.0 mi SSW 9.2 mph - N/A   Scattered Clouds
6:55 PM 48.2 °F - 28.4 °F 46% 29.60 in 10.0 mi West 12.7 mph 21.9 mph N/A   Scattered Clouds
7:15 PM 48.2 °F - 30.2 °F 50% 29.62 in 10.0 mi WSW 16.1 mph 20.7 mph N/A   Mostly Cloudy
7:35 PM 44.6 °F 38.8 °F 33.8 °F 66% 29.60 in 10.0 mi WNW 11.5 mph 25.3 mph N/A   Mostly Cloudy
7:55 PM 42.8 °F 35.8 °F 35.6 °F 76% 29.60 in 10.0 mi West 13.8 mph 19.6 mph N/A   Mostly Cloudy
8:15 PM 42.8 °F 37.0 °F 35.6 °F 76% 29.60 in 10.0 mi WSW 10.4 mph - N/A   Partly Cloudy
8:35 PM 42.8 °F 35.4 °F 35.6 °F 76% 29.59 in 10.0 mi West 15.0 mph 23.0 mph N/A   Mostly Cloudy
8:55 PM 44.6 °F 37.8 °F 35.6 °F 71% 29.59 in 10.0 mi WSW 15.0 mph 25.3 mph N/A   Mostly Cloudy
9:15 PM 42.8 °F 37.0 °F 35.6 °F 76% 29.59 in 10.0 mi SW 10.4 mph - N/A   Scattered Clouds
9:35 PM 42.8 °F 36.2 °F 33.8 °F 70% 29.60 in 10.0 mi WSW 12.7 mph 20.7 mph N/A   Partly Cloudy
9:55 PM 42.8 °F 37.0 °F 33.8 °F 70% 29.59 in 10.0 mi SW 10.4 mph 20.7 mph N/A   Partly Cloudy
10:15 PM 41.0 °F 37.1 °F 32.0 °F 70% 29.58 in 10.0 mi SW 5.8 mph - N/A   Clear
10:35 PM 42.8 °F 41.1 °F 33.8 °F 70% 29.59 in 10.0 mi SSW 3.5 mph - N/A   Scattered Clouds
10:55 PM 41.0 °F 34.7 °F 32.0 °F 70% 29.57 in 10.0 mi East 10.4 mph - N/A   Scattered Clouds
11:15 PM 41.0 °F 39.0 °F 32.0 °F 70% 29.57 in 10.0 mi ENE 3.5 mph - N/A   Scattered Clouds
11:35 PM 44.6 °F 40.7 °F 28.4 °F 53% 29.55 in 10.0 mi SSW 6.9 mph 17.3 mph N/A   Partly Cloudy
11:55 PM 44.6 °F 36.9 °F 26.6 °F 49% 29.55 in 10.0 mi SW 18.4 mph 27.6 mph N/A   Partly Cloudy